#timestamp,LO_Frequency,Hit,StdDev 
1503399615.1,286047001.7,N,1.2
1503399635.9,286047001.4,N,1.2
1503399655.7,286047004.4,Y,0.0
1503399675.6,286046999.9,P,0.6
1503399695.4,286047000.2,N,0.5
1503399715.2,286047000.8,N,0.5
1503399735.1,286047000.5,N,0.4
1503399736.0,286047000.5,N,0.4
1503399755.8,286047002.4,Y,0.0
1503399775.6,286047000.5,P,0.0
1503399795.5,286046998.5,P,0.9
1503399815.3,286046998.2,N,1.1
1503399835.2,286046998.6,N,1.0
1503399855.0,286047000.0,N,1.0
1503399855.9,286047000.0,N,0.9
1503399875.7,286047000.4,N,0.9
1503399895.6,286047000.9,N,1.0
1503399915.4,286047001.1,N,1.0
1503399935.3,286047000.7,N,1.0
1503399955.1,286047001.0,N,1.0
1503399975.9,286047000.7,N,1.0
1503399995.7,286046998.6,N,1.0
1503400015.5,286046998.2,N,1.1
1503400035.4,286046998.5,N,1.1
1503400055.2,286046998.8,N,1.1
1503400075.0,286046998.4,N,1.1
1503400076.0,286046998.4,N,1.1
1503400095.8,286046998.4,N,1.1
1503400115.6,286046998.7,N,1.1
1503400135.5,286046998.4,N,1.1
1503400155.3,286046998.1,N,1.1
1503400175.1,286046998.3,N,1.1
1503400195.9,286047000.7,N,1.1
1503400215.7,286046998.1,N,1.1
1503400235.6,286046998.3,N,1.1
1503400255.4,286047000.7,N,1.1
1503400275.2,286046998.3,N,1.1
1503400295.1,286046999.0,N,1.1
1503400296.0,286046999.0,N,1.1
1503400315.8,286046999.0,N,1.1
1503400335.7,286046998.4,N,1.1
1503400355.5,286046999.0,N,1.0
1503400375.4,286046998.9,N,1.0
1503400395.2,286046999.0,N,1.0
1503400415.1,286046999.0,N,1.0
1503400416.0,286046999.0,N,1.0
1503400435.8,286046998.8,N,0.9
1503400455.6,286046998.5,N,0.9
1503400475.5,286046998.1,N,0.8
1503400495.3,286047000.8,N,0.8
1503400515.1,286047000.7,N,0.8
1503400535.9,286047000.4,N,0.8
1503400555.7,286046998.6,N,0.8
1503400575.6,286046998.6,N,0.8
1503400595.4,286046998.8,N,0.8
1503400615.2,286046998.7,N,0.8
1503400635.1,286046999.0,N,0.8
1503400636.0,286046999.0,N,0.8
1503400655.8,286046996.5,Y,0.0
1503400675.7,286046998.5,P,0.2
1503400695.5,286047000.7,N,0.9
1503400715.3,286047001.2,N,1.1
1503400735.2,286046998.5,N,1.1
1503400755.0,286046998.1,N,1.2
1503400755.9,286046998.1,N,1.2
1503400775.8,286046998.4,N,1.1
1503400795.6,286047001.0,N,1.2
1503400815.4,286046998.3,N,1.2
1503400835.3,286046999.4,N,1.1
1503400855.1,286046999.1,N,1.1
1503400875.9,286046996.9,N,1.2
1503400895.7,286046997.3,N,1.3
1503400915.5,286046996.7,N,1.3
1503400935.4,286046996.9,N,1.4
1503400955.2,286046996.9,N,1.4
1503400975.0,286046996.6,N,1.4
1503400975.9,286046996.6,N,1.4
1503400995.8,286046999.6,N,1.4
1503401015.6,286046997.3,N,1.4
1503401035.5,286046997.8,N,1.4
1503401055.3,286046997.7,N,1.4
1503401075.1,286046995.5,Y,0.0
1503401095.9,286046997.2,P,0.5
1503401115.7,286046997.5,P,0.5
1503401135.6,286046997.5,P,0.4
1503401155.4,286046995.1,Y,0.0
1503401175.2,286046998.7,P,0.5
1503401195.1,286046998.3,P,0.4
1503401196.0,286046998.3,P,0.4
1503401215.8,286047000.3,N,0.9
1503401235.6,286046998.1,N,0.8
1503401255.5,286046999.3,N,0.8
1503401275.3,286046999.1,N,0.8
1503401295.2,286046999.3,N,0.8
1503401315.9,286046998.9,N,0.7
1503401335.7,286046999.4,N,0.7
1503401355.6,286046999.1,N,0.7
1503401375.4,286046999.0,N,0.7
1503401395.3,286046999.1,N,0.6
1503401415.1,286046998.6,N,0.6
1503401416.0,286046998.6,N,0.6
1503401435.8,286046998.9,N,0.6
1503401455.7,286046998.2,Y,0.0
1503401475.5,286046998.5,P,0.2
1503401495.4,286047001.2,P,1.2
1503401515.2,286046999.0,N,1.1
1503401535.0,286046998.8,N,1.0
1503401535.9,286046998.8,N,0.9
1503401555.8,286046999.3,N,0.8
1503401575.6,286046998.8,N,0.8
1503401595.4,286046998.6,N,0.8
1503401615.3,286047000.9,N,0.9
1503401635.1,286046998.4,N,0.9
1503401655.9,286046998.7,N,0.9
1503401675.7,286046998.8,N,0.8
1503401695.5,286046999.0,N,0.8
1503401715.4,286046999.4,N,0.8
1503401735.2,286046997.0,Y,0.0
1503401755.1,286046996.5,P,1.3
1503401756.0,286046996.5,N,1.2
1503401775.8,286046996.6,N,1.1
1503401795.6,286046999.1,N,1.3
1503401815.5,286046997.4,N,1.2
1503401835.3,286046995.4,Y,0.0
1503401855.2,286046998.9,P,0.7
1503401875.9,286046998.4,N,0.6
1503401895.7,286046998.3,P,0.5
1503401915.6,286046998.8,N,0.5
1503401935.4,286046999.1,N,0.5
1503401955.2,286047000.6,N,0.9
1503401975.1,286047000.3,N,1.0
1503401976.0,286047000.3,N,1.0
1503401995.8,286047000.1,N,1.0
1503402015.7,286047000.8,N,1.0
1503402035.5,286047000.7,N,1.1
1503402055.3,286047000.8,N,1.1
1503402075.2,286047000.5,N,1.1
1503402095.0,286047002.8,N,1.3
1503402095.9,286047002.8,N,1.4
1503402115.8,286047000.5,N,1.4
1503402135.6,286046998.4,N,1.4
1503402155.4,286046999.9,N,1.4
1503402175.3,286047002.6,N,1.5
1503402195.1,286046999.7,N,1.4
1503402215.8,286047000.1,N,1.4
1503402235.7,286046999.7,N,1.4
1503402255.5,286047000.3,N,1.3
1503402275.4,286047001.0,N,1.3
1503402295.2,286047000.8,N,1.3
1503402315.0,286047001.1,N,1.3
1503402315.9,286047001.1,N,1.3
1503402335.8,286047000.7,N,1.3
1503402355.6,286047000.5,N,1.2
1503402375.5,286047001.1,N,1.1
1503402395.3,286046998.5,N,1.2
1503402415.1,286046998.8,N,1.1
1503402435.9,286046998.3,N,1.1
1503402455.7,286046999.2,N,1.1
1503402475.6,286046998.6,N,1.1
1503402495.4,286046998.1,N,1.2
1503402515.2,286046998.3,N,1.3
1503402535.1,286046999.1,N,1.3
1503402536.0,286046999.1,N,1.3
1503402555.8,286046996.6,N,1.4
1503402575.7,286046999.6,N,1.4
1503402595.5,286046996.7,N,1.5
1503402615.3,286046996.5,N,1.6
1503402635.2,286046996.8,N,1.6
1503402655.0,286046998.3,N,1.5
1503402655.9,286046998.3,N,1.5
1503402675.8,286046996.7,N,1.6
1503402695.6,286046996.6,N,1.6
1503402715.5,286046997.0,N,1.5
1503402735.3,286046999.2,N,1.5
1503402755.1,286046999.0,N,1.5
1503402775.9,286046999.4,N,1.5
1503402795.7,286046999.6,N,1.5
1503402815.5,286046996.8,N,1.5
1503402835.4,286046996.7,N,1.5
1503402855.2,286046997.7,N,1.4
1503402875.1,286046995.1,Y,0.0
1503402876.0,286046995.1,P,1.7
1503402895.8,286046999.3,N,1.8
1503402915.6,286046996.9,N,1.6
1503402935.5,286046996.5,N,1.5
1503402955.3,286046997.0,N,1.4
1503402975.2,286046997.0,N,1.3
1503402995.9,286046999.5,N,1.4
1503403015.7,286046997.1,N,1.3
1503403035.6,286046996.7,N,1.3
1503403055.4,286046999.2,N,1.3
1503403075.3,286046998.4,N,1.3
1503403095.1,286046999.5,N,1.3
1503403115.8,286046997.1,N,1.3
1503403135.7,286046999.5,N,1.3
1503403155.5,286046999.3,N,1.3
1503403175.4,286046998.2,N,1.3
1503403195.2,286046999.0,N,1.3
